User: anonymous   Login
Location: Brown Observing Site
(43.4354°N, 116.3366°W)
Time: 17:07:50
(UTC-06:00)
Language:

Envisat - Orbit

View from above orbital plane
View from above orbital plane
View from above satellite
View from above satellite

Ground track
Ground track

The orbit data is extracted from the following two-line orbital elements,

1 27386U 02009A   19146.64540779  .00000001  00000-0  13704-4 0  9990
2 27386  98.1506 168.8486 0001290  88.3811  19.1196 14.37949228902882
Epoch (UTC): 26 May 2019 15:29:23
Eccentricity: 0.0001290
inclination: 98.1506°
perigee height: 764 km
apogee height: 766 km
right ascension of ascending node: 168.8486°
argument of perigee: 88.3811°
revolutions per day: 14.37949228
mean anomaly at epoch: 19.1196°
orbit number at epoch: 90288

The dashed part of the orbit path shows where the satellite is in the earth's shadow,  

DLR